Flag for Brazil Weather past 2 weeks in Campinas, São Paulo, Brazil

Now
61 °F

Partly cloudy.


Feels Like: 61 °F
Forecast: 58 / 72 °F
Wind: 17 mph from Southeast

Location: Campinas Aeroporto

Current Time: Jul 28, 2014 at 11:54:13 PM

Latest Report: Jul 28, 2014 at 11:00 PM


Visibility: N/A

Pressure: 30.36 "Hg

Humidity: 77%

Dew point: 54 °F

Location of CampinasLocation

Historic Weather in Campinas — Graph

°F

Campinas temperature yesterday

Maximum temperature yesterday: 64 °F (at 1:00 PM)
Minimum temperature yesterday: 57 °F (at 8:00 AM)
Average temperature yesterday: 60 °F

Past Weeks' High & Low Weather Summary

 TemperatureHumidityPressure
High81 °F (Jul 17, 2:00 PM)100% (Jul 25, 2:00 AM)30.39 "Hg (Jul 25, 2:00 AM)
Low50 °F (Jul 20, 7:00 AM)24% (Jul 21, 4:00 PM)30.01 "Hg (Jul 24, 2:00 AM)
Average63 °F68%30.20 "Hg
* Reported Jul 13 11:00 PM — Jul 28 11:00 PM, Campinas, Weather by CustomWeather, © 2014

Note: Actual official high and low records may vary slightly from our data, if they occured in-between our weather recording intervals... More about our weather records

Advertising

Campinas weather history for previous 24 hours

 ConditionsComfort  
Time TempWeatherWind HumidityBarometerVisibility
11:00 PM
Jul 28
61 °FPartly cloudy.17 mph77%30.36 "HgN/A
10:00 PM61 °FPartly cloudy.17 mph77%30.39 "HgN/A
9:00 PM61 °FClear.20 mph77%30.36 "Hg10 mi
8:00 PM63 °FClear.16 mph77%30.33 "Hg10 mi
7:00 PM63 °FClear.16 mph77%30.33 "Hg10 mi
6:00 PM64 °FClear.15 mph73%30.33 "Hg10 mi
5:00 PM66 °FPassing clouds.17 mph68%30.30 "HgN/A
4:00 PM68 °FPassing clouds.17 mph64%30.33 "HgN/A
3:00 PM70 °FPassing clouds.16 mph57%30.33 "HgN/A
2:00 PM68 °FPartly sunny.16 mph60%30.33 "HgN/A
1:00 PM70 °FScattered clouds.14 mph57%30.36 "HgN/A
12:00 PM68 °FScattered clouds.13 mph60%30.39 "HgN/A
11:00 AM68 °FScattered clouds.15 mph60%30.36 "HgN/A
10:00 AM64 °FScattered clouds.16 mph68%30.39 "HgN/A
9:00 AM63 °FScattered clouds.16 mph73%30.39 "HgN/A
8:00 AM59 °FSunny.15 mph82%30.36 "Hg10 mi
7:00 AM57 °FScattered clouds.13 mph88%30.33 "HgN/A
6:00 AM57 °FScattered clouds.12 mph88%30.33 "HgN/A
5:00 AM57 °FPassing clouds.12 mph88%30.30 "HgN/A
4:00 AM59 °FPassing clouds.12 mph82%30.30 "HgN/A
3:00 AM59 °FPartly cloudy.12 mph88%30.30 "HgN/A
2:00 AM59 °FPassing clouds.12 mph88%30.33 "HgN/A
1:00 AM59 °FPassing clouds.10 mph88%30.33 "HgN/A
12:00 AM59 °FPartly cloudy.14 mph88%30.33 "HgN/A
11:00 PM
Jul 27
59 °FClear.13 mph88%30.36 "Hg10 mi
Weather by CustomWeather, © 2014

See weather overviewHow to use our weather pages